SVA3838 OEJN-VRMM

Flight info

Callsign SVA3838
Flight time 5h 8m
Altitude 37000
Route EGPOB V31 BSH L425 AMBIT/N0468F290 L425 GOBRO/N0492F370 L425 ASPUX UL425 MAMIG/N0490F390 UL425 DONSA L894 ELBET ELBET1A
Aircraft B78X/H-SDE1E2E3FGHIJ2J3J4J5M1RWXY/LB1D1

Departure

Time 2026-05-06 12:29
Airport King Abdulaziz International Airport (OEJN)

Arrival

Time 2026-05-06 17:38
Airport Velana International Airport (VRMM)
Time Latitude Longitude Altitude Speed Heading
2026-05-06 11:23 21.67156 39.16574 39 ft 0 kts 193°
2026-05-06 11:28 21.67157 39.16574 39 ft 0 kts 193°
2026-05-06 11:30 21.67157 39.16575 39 ft 0 kts 193°
2026-05-06 11:30 21.67157 39.16574 39 ft 0 kts 193°
2026-05-06 11:31 21.67157 39.16575 39 ft 0 kts 193°
2026-05-06 11:37 21.67158 39.16575 39 ft 0 kts 193°
2026-05-06 11:45 21.67159 39.16575 39 ft 0 kts 193°
2026-05-06 11:52 21.67160 39.16575 38 ft 0 kts 193°
2026-05-06 12:01 21.67161 39.16575 39 ft 0 kts 193°
2026-05-06 12:03 21.67161 39.16576 39 ft 0 kts 193°
2026-05-06 12:09 21.67162 39.16576 94 ft 0 kts 193°
2026-05-06 12:14 21.67177 39.16579 37 ft 4 kts 192°
2026-05-06 12:14 21.67203 39.16585 35 ft 4 kts 188°
2026-05-06 12:14 21.67222 39.16588 35 ft 2 kts 168°
2026-05-06 12:15 21.67233 39.16585 36 ft 2 kts 138°
2026-05-06 12:15 21.67240 39.16577 34 ft 0 kts 123°
2026-05-06 12:15 21.67231 39.16581 34 ft 4 kts 159°
2026-05-06 12:15 21.67207 39.16581 36 ft 2 kts 187°
2026-05-06 12:16 21.67206 39.16581 36 ft 0 kts 187°
2026-05-06 12:16 21.67212 39.16582 36 ft 1 kts 194°
2026-05-06 12:16 21.67224 39.16585 36 ft 2 kts 216°
2026-05-06 12:16 21.67233 39.16593 35 ft 2 kts 251°
2026-05-06 12:17 21.67236 39.16608 36 ft 2 kts 272°
2026-05-06 12:17 21.67235 39.16623 37 ft 2 kts 278°
2026-05-06 12:17 21.67234 39.16635 37 ft 2 kts 279°
2026-05-06 12:17 21.67232 39.16643 36 ft 0 kts 279°
2026-05-06 12:18 21.67233 39.16641 36 ft 0 kts 279°
2026-05-06 12:19 21.67233 39.16640 36 ft 0 kts 279°
2026-05-06 12:19 21.67233 39.16641 36 ft 0 kts 279°
2026-05-06 12:21 21.67234 39.16631 37 ft 3 kts 279°
2026-05-06 12:21 21.67239 39.16602 35 ft 5 kts 280°
2026-05-06 12:22 21.67245 39.16574 34 ft 6 kts 286°
2026-05-06 12:22 21.67273 39.16529 38 ft 8 kts 318°
2026-05-06 12:22 21.67326 39.16500 38 ft 9 kts 340°
2026-05-06 12:22 21.67393 39.16475 38 ft 11 kts 341°
2026-05-06 12:23 21.67462 39.16448 39 ft 10 kts 340°
2026-05-06 12:23 21.67524 39.16425 39 ft 9 kts 341°
2026-05-06 12:23 21.67561 39.16394 39 ft 5 kts 296°
2026-05-06 12:23 21.67562 39.16358 38 ft 4 kts 260°
2026-05-06 12:24 21.67549 39.16322 38 ft 9 kts 252°
2026-05-06 12:24 21.67526 39.16245 38 ft 11 kts 252°
2026-05-06 12:24 21.67492 39.16174 38 ft 10 kts 222°
2026-05-06 12:24 21.67428 39.16168 38 ft 10 kts 163°
2026-05-06 12:25 21.67358 39.16197 38 ft 12 kts 159°
2026-05-06 12:25 21.67278 39.16231 38 ft 13 kts 159°
2026-05-06 12:25 21.67192 39.16267 39 ft 13 kts 158°
2026-05-06 12:25 21.67106 39.16302 39 ft 13 kts 162°
2026-05-06 12:26 21.67020 39.16334 39 ft 14 kts 160°
2026-05-06 12:26 21.66890 39.16387 39 ft 23 kts 159°
2026-05-06 12:26 21.66743 39.16441 39 ft 22 kts 161°
2026-05-06 12:26 21.66598 39.16501 39 ft 22 kts 159°
2026-05-06 12:27 21.66455 39.16558 39 ft 22 kts 160°
2026-05-06 12:27 21.66317 39.16613 38 ft 20 kts 158°
2026-05-06 12:27 21.66199 39.16639 38 ft 13 kts 207°
2026-05-06 12:27 21.66169 39.16583 38 ft 0 kts 249°
2026-05-06 12:28 21.66167 39.16579 38 ft 4 kts 249°
2026-05-06 12:28 21.66155 39.16501 38 ft 13 kts 286°
2026-05-06 12:28 21.66212 39.16448 38 ft 10 kts 340°
2026-05-06 12:29 21.66398 39.16377 39 ft 65 kts 340°
2026-05-06 12:29 21.67077 39.16111 39 ft 141 kts 340°
2026-05-06 12:29 21.68178 39.15668 161 ft 192 kts 334°
2026-05-06 12:29 21.69374 39.15142 1280 ft 176 kts 335°
2026-05-06 12:30 21.70491 39.14668 2092 ft 167 kts 340°
2026-05-06 12:30 21.71604 39.14301 1973 ft 169 kts 341°
2026-05-06 12:30 21.72759 39.13871 1908 ft 185 kts 339°
2026-05-06 12:30 21.74072 39.13355 1962 ft 221 kts 339°
2026-05-06 12:31 21.75520 39.12774 2785 ft 230 kts 339°
2026-05-06 12:31 21.76794 39.11650 3476 ft 247 kts 304°
2026-05-06 12:31 21.77430 39.09883 4276 ft 265 kts 277°
2026-05-06 12:31 21.77211 39.07889 5256 ft 275 kts 249°
2026-05-06 12:32 21.76107 39.06231 6343 ft 277 kts 217°
2026-05-06 12:32 21.74377 39.05375 7562 ft 274 kts 189°
2026-05-06 12:32 21.72489 39.05162 8744 ft 272 kts 185°
2026-05-06 12:32 21.70583 39.05031 9796 ft 273 kts 185°
2026-05-06 12:33 21.68673 39.04893 10473 ft 293 kts 185°
2026-05-06 12:33 21.66607 39.04709 11250 ft 304 kts 186°
2026-05-06 12:33 21.64428 39.04514 11661 ft 328 kts 184°
2026-05-06 12:33 21.62178 39.04970 12372 ft 343 kts 158°
2026-05-06 12:34 21.60154 39.06391 13289 ft 356 kts 140°
2026-05-06 12:34 21.58388 39.08290 14137 ft 362 kts 138°
2026-05-06 12:34 21.56621 39.10263 15017 ft 367 kts 138°
2026-05-06 12:34 21.54808 39.12219 15896 ft 371 kts 139°
2026-05-06 12:35 21.52949 39.14178 16731 ft 377 kts 139°
2026-05-06 12:35 21.51076 39.16172 17563 ft 382 kts 139°
2026-05-06 12:35 21.49187 39.18208 18356 ft 387 kts 139°
2026-05-06 12:35 21.47270 39.20266 19055 ft 392 kts 139°
2026-05-06 12:36 21.45323 39.22344 19757 ft 397 kts 139°
2026-05-06 12:36 21.43344 39.24455 20443 ft 403 kts 139°
2026-05-06 12:36 21.41346 39.26592 21100 ft 409 kts 139°
2026-05-06 12:36 21.39318 39.28761 21741 ft 414 kts 139°
2026-05-06 12:37 21.37262 39.30956 22391 ft 420 kts 140°
2026-05-06 12:37 21.35200 39.33156 23005 ft 425 kts 140°
2026-05-06 12:37 21.33090 39.35406 23583 ft 430 kts 140°
2026-05-06 12:37 21.30957 39.37682 24116 ft 435 kts 140°
2026-05-06 12:38 21.28807 39.39975 24647 ft 439 kts 140°
2026-05-06 12:38 21.26633 39.42292 25160 ft 443 kts 140°
2026-05-06 12:38 21.24430 39.44638 25685 ft 447 kts 140°
2026-05-06 12:38 21.22213 39.46998 26181 ft 451 kts 141°
2026-05-06 12:39 21.19976 39.49378 26696 ft 455 kts 141°
2026-05-06 12:39 21.17718 39.51780 27165 ft 459 kts 141°
2026-05-06 12:39 21.15439 39.54202 27652 ft 462 kts 141°
2026-05-06 12:39 21.13144 39.56641 28126 ft 466 kts 141°
2026-05-06 12:40 21.10835 39.59094 28569 ft 469 kts 141°
2026-05-06 12:40 21.08535 39.61537 29038 ft 473 kts 141°
2026-05-06 12:40 21.06162 39.64054 29492 ft 476 kts 141°
2026-05-06 12:40 21.03802 39.66556 29922 ft 480 kts 141°
2026-05-06 12:41 21.01446 39.69055 30308 ft 483 kts 141°
2026-05-06 12:41 20.99057 39.71589 30666 ft 485 kts 141°
2026-05-06 12:41 20.96651 39.74137 31035 ft 488 kts 141°
2026-05-06 12:41 20.94297 39.76783 31423 ft 495 kts 134°
2026-05-06 12:42 20.92336 39.79848 31808 ft 505 kts 124°
2026-05-06 12:42 20.90864 39.83297 32182 ft 514 kts 115°
2026-05-06 12:42 20.89630 39.86898 32510 ft 517 kts 115°
2026-05-06 12:42 20.88412 39.90520 32839 ft 519 kts 115°
2026-05-06 12:43 20.87197 39.94168 33179 ft 522 kts 115°
2026-05-06 12:43 20.85961 39.97834 33489 ft 524 kts 115°
2026-05-06 12:43 20.84713 40.01500 33805 ft 526 kts 115°
2026-05-06 12:43 20.83464 40.05189 34100 ft 528 kts 115°
2026-05-06 12:44 20.82218 40.08889 34401 ft 529 kts 115°
2026-05-06 12:44 20.80985 40.12539 34823 ft 527 kts 115°
2026-05-06 12:44 20.79734 40.16225 35194 ft 527 kts 115°
2026-05-06 12:44 20.78484 40.19901 35561 ft 527 kts 115°
2026-05-06 12:45 20.77236 40.23582 35950 ft 526 kts 115°
2026-05-06 12:45 20.75989 40.27256 36290 ft 526 kts 115°
2026-05-06 12:45 20.73489 40.34604 36934 ft 527 kts 115°
2026-05-06 12:46 20.72233 40.38291 36964 ft 528 kts 115°
2026-05-06 12:46 20.69748 40.45590 36972 ft 523 kts 115°
2026-05-06 12:47 20.67253 40.52890 36993 ft 522 kts 115°
2026-05-06 12:47 20.64766 40.60167 37006 ft 522 kts 115°
2026-05-06 12:48 20.62267 40.67462 37009 ft 522 kts 115°
2026-05-06 12:48 20.59769 40.74743 37045 ft 523 kts 115°
2026-05-06 12:49 20.57265 40.82035 37012 ft 523 kts 115°
2026-05-06 12:49 20.54780 40.89257 37018 ft 522 kts 115°
2026-05-06 12:50 20.52275 40.96524 37027 ft 521 kts 115°
2026-05-06 12:50 20.49777 41.03770 37040 ft 520 kts 115°
2026-05-06 12:51 20.47269 41.11037 37069 ft 522 kts 115°
2026-05-06 12:51 20.44755 41.18306 37084 ft 522 kts 115°
2026-05-06 12:52 20.42241 41.25568 37081 ft 521 kts 115°
2026-05-06 12:52 20.39725 41.32820 37105 ft 521 kts 115°
2026-05-06 12:53 20.37207 41.40068 37106 ft 521 kts 114°
2026-05-06 12:53 20.34705 41.47264 37103 ft 521 kts 115°
2026-05-06 12:54 20.32181 41.54504 37101 ft 521 kts 115°
2026-05-06 12:54 20.29662 41.61728 37100 ft 520 kts 114°
2026-05-06 12:55 20.27349 41.69053 37108 ft 521 kts 113°
2026-05-06 12:55 20.25028 41.76330 37110 ft 521 kts 112°
2026-05-06 12:56 20.22757 41.83648 37100 ft 519 kts 112°
2026-05-06 12:56 20.20449 41.90933 37082 ft 520 kts 112°
2026-05-06 12:57 20.18157 41.98239 37063 ft 520 kts 112°
2026-05-06 12:57 20.15853 42.05528 37038 ft 517 kts 112°
2026-05-06 12:58 20.13574 42.12744 37026 ft 518 kts 112°
2026-05-06 12:58 20.11272 42.20017 37008 ft 518 kts 112°
2026-05-06 12:59 20.08968 42.27283 37008 ft 517 kts 112°
2026-05-06 12:59 20.06663 42.34543 36981 ft 518 kts 112°
2026-05-06 13:00 20.04355 42.41801 36967 ft 518 kts 112°
2026-05-06 13:00 20.02044 42.49055 36964 ft 517 kts 112°
2026-05-06 13:01 19.99736 42.56292 36964 ft 516 kts 112°
2026-05-06 13:01 19.98816 42.59986 37007 ft 520 kts 101°
2026-05-06 13:01 19.98532 42.63787 37006 ft 525 kts 90°
2026-05-06 13:01 19.98899 42.67649 36953 ft 528 kts 79°
2026-05-06 13:02 19.99689 42.71461 36940 ft 528 kts 79°
2026-05-06 13:02 20.01313 42.79083 36955 ft 528 kts 78°
2026-05-06 13:03 20.02934 42.86703 36959 ft 529 kts 79°
2026-05-06 13:03 20.04549 42.94350 36960 ft 529 kts 79°
2026-05-06 13:04 20.06149 43.01975 36954 ft 528 kts 79°
2026-05-06 13:04 20.07735 43.09540 36950 ft 529 kts 79°
2026-05-06 13:05 20.09332 43.17178 36937 ft 528 kts 79°
2026-05-06 13:05 20.10924 43.24807 36930 ft 527 kts 79°
2026-05-06 13:06 20.12506 43.32405 36922 ft 526 kts 79°
2026-05-06 13:06 20.14085 43.40013 36911 ft 526 kts 79°
2026-05-06 13:07 20.15397 43.46338 36903 ft 525 kts 79°
2026-05-06 13:07 20.17219 43.55153 36897 ft 525 kts 79°
2026-05-06 13:08 20.18529 43.61504 36899 ft 528 kts 79°
2026-05-06 13:08 20.20098 43.69119 36891 ft 526 kts 79°
2026-05-06 13:09 20.21660 43.76728 36880 ft 525 kts 79°
2026-05-06 13:09 20.23218 43.84325 36870 ft 525 kts 79°
2026-05-06 13:10 20.24771 43.91924 36864 ft 523 kts 79°
2026-05-06 13:10 20.26319 43.99508 36866 ft 524 kts 79°
2026-05-06 13:11 20.27867 44.07117 36869 ft 525 kts 79°
2026-05-06 13:11 20.29400 44.14665 36866 ft 524 kts 79°
2026-05-06 13:12 20.30940 44.22264 36864 ft 525 kts 79°
2026-05-06 13:12 20.32473 44.29849 36849 ft 523 kts 79°
2026-05-06 13:13 20.34003 44.37438 36849 ft 524 kts 79°
2026-05-06 13:13 20.35531 44.45031 36850 ft 523 kts 79°
2026-05-06 13:14 20.37056 44.52630 36846 ft 525 kts 79°
2026-05-06 13:14 20.38572 44.60203 36847 ft 525 kts 79°
2026-05-06 13:15 20.40089 44.67795 36836 ft 522 kts 79°
2026-05-06 13:15 20.41599 44.75373 36839 ft 523 kts 79°
2026-05-06 13:16 20.43108 44.82961 36836 ft 523 kts 79°
2026-05-06 13:16 20.44613 44.90549 36832 ft 523 kts 79°
2026-05-06 13:17 20.46114 44.98137 36832 ft 523 kts 79°
2026-05-06 13:17 20.47601 45.05669 36825 ft 524 kts 79°
2026-05-06 13:18 20.49101 45.13283 36822 ft 524 kts 79°
2026-05-06 13:18 20.50334 45.20935 36866 ft 520 kts 91°
2026-05-06 13:19 20.49892 45.28596 36826 ft 517 kts 97°
2026-05-06 13:19 20.49271 45.36190 36829 ft 516 kts 97°
2026-05-06 13:20 20.48663 45.43823 36843 ft 517 kts 97°
2026-05-06 13:20 20.48041 45.51475 36836 ft 518 kts 97°
2026-05-06 13:21 20.47419 45.59129 36837 ft 518 kts 97°
2026-05-06 13:21 20.46793 45.66779 36832 ft 518 kts 97°
2026-05-06 13:22 20.46163 45.74433 36835 ft 518 kts 97°
2026-05-06 13:22 20.45530 45.82086 36829 ft 519 kts 97°
2026-05-06 13:23 20.44894 45.89744 36823 ft 517 kts 97°
2026-05-06 13:23 20.44255 45.97382 36813 ft 517 kts 97°
2026-05-06 13:24 20.43616 46.04979 36809 ft 518 kts 97°
2026-05-06 13:24 20.42969 46.12641 36808 ft 518 kts 97°
2026-05-06 13:25 20.42318 46.20308 36809 ft 519 kts 97°
2026-05-06 13:25 20.41663 46.27979 36801 ft 518 kts 97°
2026-05-06 13:26 20.41007 46.35618 36803 ft 517 kts 98°
2026-05-06 13:26 20.40347 46.43266 36795 ft 518 kts 98°
2026-05-06 13:27 20.39686 46.50900 36779 ft 517 kts 98°
2026-05-06 13:27 20.39025 46.58483 36778 ft 517 kts 98°
2026-05-06 13:28 20.38357 46.66104 36777 ft 517 kts 98°
2026-05-06 13:28 20.37685 46.73738 36773 ft 517 kts 98°
2026-05-06 13:29 20.37009 46.81370 36771 ft 517 kts 98°
2026-05-06 13:29 20.36330 46.88995 36772 ft 517 kts 98°
2026-05-06 13:30 20.35646 46.96635 36765 ft 517 kts 98°
2026-05-06 13:30 20.34959 47.04275 36767 ft 518 kts 98°
2026-05-06 13:31 20.34273 47.11863 36760 ft 517 kts 98°
2026-05-06 13:31 20.33581 47.19485 36755 ft 517 kts 98°
2026-05-06 13:32 20.32884 47.27116 36748 ft 517 kts 98°
2026-05-06 13:32 20.32185 47.34739 36745 ft 517 kts 98°
2026-05-06 13:33 20.31481 47.42383 36736 ft 517 kts 98°
2026-05-06 13:33 20.30773 47.50026 36740 ft 518 kts 98°
2026-05-06 13:34 20.30068 47.57609 36735 ft 517 kts 98°
2026-05-06 13:34 20.29355 47.65233 36724 ft 517 kts 98°
2026-05-06 13:35 20.28637 47.72875 36726 ft 516 kts 98°
2026-05-06 13:35 20.27921 47.80468 36724 ft 515 kts 98°
2026-05-06 13:36 20.27204 47.88026 36726 ft 516 kts 98°
2026-05-06 13:36 20.26480 47.95633 36719 ft 516 kts 98°
2026-05-06 13:37 20.25751 48.03247 36721 ft 516 kts 98°
2026-05-06 13:37 20.25021 48.10841 36720 ft 515 kts 98°
2026-05-06 13:38 20.24289 48.18427 36717 ft 515 kts 98°
2026-05-06 13:38 20.23553 48.26012 36719 ft 515 kts 98°
2026-05-06 13:39 20.22813 48.33606 36712 ft 516 kts 98°
2026-05-06 13:39 20.22073 48.41178 36719 ft 513 kts 98°
2026-05-06 13:40 20.21330 48.48734 36714 ft 513 kts 98°
2026-05-06 13:40 20.20590 48.56237 36717 ft 512 kts 98°
2026-05-06 13:41 20.19842 48.63794 36714 ft 513 kts 98°
2026-05-06 13:41 20.19089 48.71354 36716 ft 514 kts 98°
2026-05-06 13:42 20.18332 48.78920 36712 ft 514 kts 98°
2026-05-06 13:42 20.17571 48.86487 36712 ft 513 kts 98°
2026-05-06 13:43 20.16812 48.93996 36715 ft 512 kts 98°
2026-05-06 13:43 20.16048 49.01525 36710 ft 510 kts 98°
2026-05-06 13:44 20.15283 49.09039 36708 ft 510 kts 98°
2026-05-06 13:44 20.14513 49.16557 36713 ft 511 kts 98°
2026-05-06 13:45 20.13745 49.24030 36710 ft 512 kts 98°
2026-05-06 13:45 20.12578 49.35328 36711 ft 512 kts 98°
2026-05-06 13:46 20.11795 49.42866 36709 ft 512 kts 98°
2026-05-06 13:46 20.11011 49.50388 36709 ft 511 kts 98°
2026-05-06 13:47 20.10223 49.57907 36708 ft 511 kts 98°
2026-05-06 13:47 20.09433 49.65426 36704 ft 511 kts 98°
2026-05-06 13:48 20.08641 49.72928 36696 ft 510 kts 98°
2026-05-06 13:48 20.07846 49.80425 36698 ft 510 kts 98°
2026-05-06 13:49 20.07052 49.87886 36701 ft 510 kts 98°
2026-05-06 13:49 20.06249 49.95393 36700 ft 511 kts 98°
2026-05-06 13:50 20.05441 50.02906 36699 ft 511 kts 98°
2026-05-06 13:50 20.04630 50.10429 36701 ft 512 kts 98°
2026-05-06 13:51 20.03816 50.17949 36698 ft 511 kts 98°
2026-05-06 13:51 20.03000 50.25456 36697 ft 511 kts 98°
2026-05-06 13:52 20.02180 50.32968 36698 ft 511 kts 98°
2026-05-06 13:52 20.01361 50.40442 36695 ft 511 kts 98°
2026-05-06 13:53 20.00534 50.47958 36694 ft 511 kts 98°
2026-05-06 13:53 19.99703 50.55480 36698 ft 512 kts 98°
2026-05-06 13:54 19.99011 50.61726 36699 ft 512 kts 98°
2026-05-06 13:54 19.98175 50.69241 36696 ft 512 kts 98°
2026-05-06 13:55 19.97199 50.77975 36697 ft 512 kts 98°
2026-05-06 13:55 19.96493 50.84271 36696 ft 512 kts 98°
2026-05-06 13:56 19.95648 50.91780 36696 ft 511 kts 98°
2026-05-06 13:56 19.94806 50.99238 36693 ft 511 kts 98°
2026-05-06 13:57 19.93956 51.06735 36690 ft 509 kts 98°
2026-05-06 13:57 19.93106 51.14199 36690 ft 509 kts 98°
2026-05-06 13:58 19.92252 51.21673 36693 ft 509 kts 98°
2026-05-06 13:58 19.91395 51.29149 36693 ft 509 kts 98°
2026-05-06 13:59 19.90534 51.36627 36690 ft 510 kts 98°
2026-05-06 13:59 19.89675 51.44061 36691 ft 510 kts 98°
2026-05-06 14:00 19.88806 51.51552 36695 ft 511 kts 98°
2026-05-06 14:00 19.87933 51.59045 36694 ft 511 kts 98°
2026-05-06 14:01 19.87057 51.66548 36693 ft 511 kts 98°
2026-05-06 14:01 19.86179 51.74035 36689 ft 511 kts 98°
2026-05-06 14:02 19.85300 51.81499 36684 ft 508 kts 98°
2026-05-06 14:02 19.84419 51.88961 36687 ft 509 kts 98°
2026-05-06 14:03 19.83535 51.96420 36688 ft 509 kts 98°
2026-05-06 14:03 19.82651 52.03844 36688 ft 509 kts 98°
2026-05-06 14:04 19.81761 52.11299 36684 ft 509 kts 98°
2026-05-06 14:04 19.80867 52.18755 36684 ft 509 kts 98°
2026-05-06 14:05 19.79969 52.26210 36687 ft 509 kts 98°
2026-05-06 14:05 19.79068 52.33658 36686 ft 508 kts 98°
2026-05-06 14:06 19.78165 52.41101 36689 ft 508 kts 98°
2026-05-06 14:06 19.77258 52.48546 36694 ft 508 kts 98°
2026-05-06 14:07 19.76349 52.55983 36695 ft 508 kts 98°
2026-05-06 14:07 19.75441 52.63385 36695 ft 508 kts 98°
2026-05-06 14:08 19.74524 52.70839 36697 ft 508 kts 98°
2026-05-06 14:08 19.73604 52.78283 36697 ft 508 kts 98°
2026-05-06 14:09 19.72678 52.85703 36698 ft 509 kts 98°
2026-05-06 14:09 19.71733 52.93153 36699 ft 509 kts 98°
2026-05-06 14:10 19.70794 53.00597 36702 ft 509 kts 98°
2026-05-06 14:10 19.69844 53.08060 36702 ft 510 kts 98°
2026-05-06 14:11 19.68900 53.15472 36703 ft 509 kts 98°
2026-05-06 14:11 19.67946 53.22930 36696 ft 508 kts 98°
2026-05-06 14:12 19.66992 53.30365 36697 ft 508 kts 98°
2026-05-06 14:12 19.66034 53.37803 36698 ft 509 kts 98°
2026-05-06 14:13 19.65073 53.45245 36702 ft 509 kts 98°
2026-05-06 14:13 19.64115 53.52641 36703 ft 509 kts 98°
2026-05-06 14:14 19.63147 53.60087 36706 ft 509 kts 98°
2026-05-06 14:14 19.62175 53.67533 36706 ft 509 kts 98°
2026-05-06 14:15 19.61203 53.74962 36697 ft 509 kts 98°
2026-05-06 14:15 19.59828 53.82293 36722 ft 508 kts 107°
2026-05-06 14:16 19.57816 53.89490 36722 ft 508 kts 107°
2026-05-06 14:16 19.55812 53.96664 36720 ft 506 kts 107°
2026-05-06 14:17 19.53803 54.03822 36718 ft 507 kts 107°
2026-05-06 14:17 19.51794 54.10942 36722 ft 508 kts 107°
2026-05-06 14:18 19.49772 54.18118 36724 ft 508 kts 107°
2026-05-06 14:18 19.47742 54.25292 36724 ft 507 kts 107°
2026-05-06 14:19 19.45717 54.32448 36721 ft 506 kts 107°
2026-05-06 14:19 19.43690 54.39594 36722 ft 506 kts 107°
2026-05-06 14:20 19.41673 54.46696 36721 ft 506 kts 107°
2026-05-06 14:20 19.39641 54.53836 36721 ft 507 kts 108°
2026-05-06 14:21 19.37604 54.60986 36721 ft 507 kts 108°
2026-05-06 14:21 19.35563 54.68138 36727 ft 507 kts 108°
2026-05-06 14:22 19.33520 54.75282 36728 ft 507 kts 108°
2026-05-06 14:22 19.31468 54.82448 36732 ft 509 kts 108°
2026-05-06 14:23 19.29430 54.89557 36735 ft 507 kts 108°
2026-05-06 14:23 19.27370 54.96725 36745 ft 508 kts 108°
2026-05-06 14:24 19.25309 55.03891 36748 ft 511 kts 108°
2026-05-06 14:24 19.23251 55.11031 36744 ft 506 kts 108°
2026-05-06 14:25 19.21187 55.18178 36750 ft 505 kts 108°
2026-05-06 14:25 19.19121 55.25327 36756 ft 509 kts 108°
2026-05-06 14:26 19.17072 55.32405 36760 ft 509 kts 108°
2026-05-06 14:26 19.14999 55.39553 36764 ft 504 kts 108°
2026-05-06 14:27 19.12925 55.46688 36772 ft 507 kts 108°
2026-05-06 14:27 19.10850 55.53821 36774 ft 510 kts 108°
2026-05-06 14:28 19.08784 55.60914 36775 ft 502 kts 108°
2026-05-06 14:28 19.06709 55.68020 36790 ft 502 kts 108°
2026-05-06 14:29 19.04640 55.75094 36788 ft 506 kts 108°
2026-05-06 14:29 19.02573 55.82126 36784 ft 503 kts 108°
2026-05-06 14:30 19.00492 55.89199 36799 ft 502 kts 108°
2026-05-06 14:30 18.98405 55.96282 36800 ft 504 kts 108°
2026-05-06 14:31 18.96326 56.03327 36801 ft 504 kts 108°
2026-05-06 14:31 18.94229 56.10397 36806 ft 502 kts 108°
2026-05-06 14:32 18.92152 56.17393 36809 ft 499 kts 108°
2026-05-06 14:32 18.90070 56.24397 36810 ft 502 kts 108°
2026-05-06 14:33 18.87981 56.31415 36808 ft 500 kts 108°
2026-05-06 14:33 18.85892 56.38422 36814 ft 499 kts 108°
2026-05-06 14:34 18.83804 56.45415 36817 ft 500 kts 108°
2026-05-06 14:34 18.81709 56.52422 36818 ft 500 kts 108°
2026-05-06 14:35 18.79625 56.59376 36819 ft 500 kts 108°
2026-05-06 14:35 18.77527 56.66374 36821 ft 500 kts 108°
2026-05-06 14:36 18.75426 56.73368 36821 ft 500 kts 108°
2026-05-06 14:36 18.73323 56.80358 36825 ft 500 kts 108°
2026-05-06 14:37 18.71215 56.87354 36823 ft 500 kts 108°
2026-05-06 14:37 18.69118 56.94307 36823 ft 500 kts 108°
2026-05-06 14:38 18.67005 57.01299 36821 ft 500 kts 108°
2026-05-06 14:38 18.64889 57.08290 36821 ft 500 kts 108°
2026-05-06 14:39 18.62771 57.15276 36820 ft 501 kts 108°
2026-05-06 14:39 18.60648 57.22275 36818 ft 500 kts 108°
2026-05-06 14:40 18.58538 57.29213 36822 ft 497 kts 108°
2026-05-06 14:40 18.56422 57.36166 36823 ft 498 kts 108°
2026-05-06 14:41 18.54302 57.43123 36825 ft 499 kts 108°
2026-05-06 14:41 18.52172 57.50098 36834 ft 500 kts 108°
2026-05-06 14:42 18.50041 57.57068 36833 ft 500 kts 108°
2026-05-06 14:42 18.48266 57.62868 36834 ft 500 kts 108°
2026-05-06 14:43 18.46128 57.69840 36837 ft 500 kts 108°
2026-05-06 14:43 18.43639 57.77947 36837 ft 500 kts 108°
2026-05-06 14:44 18.41844 57.83788 36837 ft 500 kts 108°
2026-05-06 14:45 18.38637 57.94203 36835 ft 499 kts 109°
2026-05-06 14:45 18.36485 58.01169 36835 ft 500 kts 109°
2026-05-06 14:46 18.34313 58.08138 36833 ft 500 kts 109°
2026-05-06 14:46 18.32159 58.15068 36835 ft 500 kts 109°
2026-05-06 14:47 18.29991 58.22021 36833 ft 500 kts 109°
2026-05-06 14:47 18.27822 58.28971 36831 ft 500 kts 109°
2026-05-06 14:48 18.25649 58.35923 36830 ft 500 kts 109°
2026-05-06 14:48 18.23470 58.42882 36832 ft 500 kts 109°
2026-05-06 14:49 18.21288 58.49843 36838 ft 501 kts 109°
2026-05-06 14:49 18.19104 58.56802 36837 ft 501 kts 109°
2026-05-06 14:50 18.16917 58.63762 36834 ft 501 kts 109°
2026-05-06 14:50 18.14738 58.70682 36840 ft 501 kts 109°
2026-05-06 14:51 18.12547 58.77633 36838 ft 501 kts 109°
2026-05-06 14:51 18.10355 58.84578 36839 ft 501 kts 109°
2026-05-06 14:52 18.08155 58.91538 36841 ft 500 kts 109°
2026-05-06 14:52 18.05956 58.98486 36842 ft 501 kts 109°
2026-05-06 14:53 18.03769 59.05387 36841 ft 501 kts 109°
2026-05-06 14:53 18.01565 59.12332 36843 ft 501 kts 109°
2026-05-06 14:54 17.99358 59.19273 36839 ft 501 kts 109°
2026-05-06 14:54 17.97151 59.26208 36840 ft 501 kts 109°
2026-05-06 14:55 17.94939 59.33151 36843 ft 501 kts 109°
2026-05-06 14:55 17.92721 59.40097 36845 ft 501 kts 109°
2026-05-06 14:56 17.90517 59.46997 36842 ft 501 kts 109°
2026-05-06 14:56 17.88299 59.53929 36843 ft 501 kts 109°
2026-05-06 14:57 17.86073 59.60873 36846 ft 501 kts 109°
2026-05-06 14:57 17.83853 59.67796 36840 ft 500 kts 109°
2026-05-06 14:58 17.81629 59.74715 36841 ft 500 kts 109°
2026-05-06 14:58 17.79402 59.81638 36842 ft 500 kts 109°
2026-05-06 14:59 17.77190 59.88504 36840 ft 500 kts 109°
2026-05-06 14:59 17.74962 59.95412 36849 ft 500 kts 109°
2026-05-06 15:00 17.72278 60.02111 36875 ft 499 kts 122°
2026-05-06 15:00 17.68648 60.08329 36851 ft 499 kts 123°
2026-05-06 15:01 17.65012 60.14531 36860 ft 500 kts 122°
2026-05-06 15:01 17.61386 60.20741 36850 ft 498 kts 122°
2026-05-06 15:02 17.57755 60.26928 36849 ft 498 kts 122°
2026-05-06 15:02 17.54134 60.33111 36852 ft 498 kts 122°
2026-05-06 15:03 17.50521 60.39262 36855 ft 498 kts 122°
2026-05-06 15:03 17.46891 60.45444 36852 ft 498 kts 122°
2026-05-06 15:04 17.43253 60.51629 36854 ft 499 kts 122°
2026-05-06 15:04 17.39610 60.57819 36848 ft 498 kts 122°
2026-05-06 15:05 17.35980 60.63981 36857 ft 498 kts 122°
2026-05-06 15:05 17.32341 60.70152 36853 ft 498 kts 122°
2026-05-06 15:06 17.28699 60.76325 36852 ft 498 kts 122°
2026-05-06 15:06 17.25074 60.82460 36853 ft 498 kts 122°
2026-05-06 15:07 17.21425 60.88633 36865 ft 499 kts 122°
2026-05-06 15:07 17.17764 60.94818 37329 ft 499 kts 122°
2026-05-06 15:07 17.15938 60.97902 37750 ft 497 kts 122°
2026-05-06 15:08 17.14124 61.00964 38184 ft 495 kts 122°
2026-05-06 15:08 17.12313 61.04019 38582 ft 493 kts 122°
2026-05-06 15:08 17.10506 61.07065 38838 ft 493 kts 122°
2026-05-06 15:09 17.06922 61.13107 38851 ft 484 kts 122°
2026-05-06 15:09 17.03389 61.19055 38848 ft 485 kts 122°
2026-05-06 15:10 16.99817 61.25064 38856 ft 486 kts 122°
2026-05-06 15:10 16.96254 61.31053 38851 ft 485 kts 122°
2026-05-06 15:11 16.92676 61.37062 38857 ft 487 kts 122°
2026-05-06 15:11 16.89105 61.43054 38854 ft 485 kts 122°
2026-05-06 15:12 16.85551 61.49012 38856 ft 486 kts 122°
2026-05-06 15:12 16.81974 61.55004 38855 ft 485 kts 122°
2026-05-06 15:13 16.78394 61.60995 38857 ft 486 kts 122°
2026-05-06 15:13 16.74819 61.66973 38854 ft 485 kts 122°
2026-05-06 15:14 16.71233 61.72963 38854 ft 486 kts 122°
2026-05-06 15:14 16.67649 61.78946 38854 ft 485 kts 122°
2026-05-06 15:15 16.64088 61.84886 38853 ft 486 kts 122°
2026-05-06 15:15 16.60505 61.90856 38852 ft 485 kts 122°
2026-05-06 15:16 16.56914 61.96835 38854 ft 487 kts 122°
2026-05-06 15:16 16.53324 62.02809 38852 ft 485 kts 122°
2026-05-06 15:17 16.49733 62.08778 38853 ft 487 kts 122°
2026-05-06 15:17 16.46139 62.14747 38849 ft 485 kts 122°
2026-05-06 15:18 16.42536 62.20726 38854 ft 487 kts 122°
2026-05-06 15:18 16.38942 62.26685 38852 ft 484 kts 122°
2026-05-06 15:19 16.35346 62.32643 38854 ft 487 kts 122°
2026-05-06 15:19 16.31769 62.38564 38852 ft 485 kts 122°
2026-05-06 15:20 16.28169 62.44518 38856 ft 486 kts 122°
2026-05-06 15:20 16.24564 62.50476 38857 ft 485 kts 122°
2026-05-06 15:21 16.20961 62.56425 38856 ft 486 kts 122°
2026-05-06 15:21 16.17353 62.62378 38856 ft 485 kts 122°
2026-05-06 15:22 16.13751 62.68315 38855 ft 486 kts 122°
2026-05-06 15:22 16.10147 62.74251 38855 ft 485 kts 122°
2026-05-06 15:23 16.06543 62.80184 38856 ft 486 kts 122°
2026-05-06 15:23 16.02956 62.86082 38857 ft 484 kts 122°
2026-05-06 15:24 15.99348 62.92010 38857 ft 486 kts 122°
2026-05-06 15:24 15.95732 62.97947 38858 ft 484 kts 122°
2026-05-06 15:25 15.92136 63.03845 38855 ft 487 kts 122°
2026-05-06 15:25 15.88500 63.09806 38855 ft 484 kts 122°
2026-05-06 15:26 15.84913 63.15681 38854 ft 486 kts 122°
2026-05-06 15:26 15.81286 63.21617 38859 ft 485 kts 122°
2026-05-06 15:27 15.77664 63.27540 38855 ft 486 kts 122°
2026-05-06 15:27 15.74036 63.33467 38858 ft 485 kts 122°
2026-05-06 15:28 15.70411 63.39384 38856 ft 486 kts 122°
2026-05-06 15:28 15.66803 63.45271 38857 ft 485 kts 122°
2026-05-06 15:29 15.63179 63.51177 38855 ft 485 kts 122°
2026-05-06 15:29 15.59549 63.57090 38854 ft 485 kts 122°
2026-05-06 15:30 15.55926 63.62987 38861 ft 485 kts 122°
2026-05-06 15:30 15.52906 63.67897 38860 ft 485 kts 122°
2026-05-06 15:31 15.49277 63.73794 38861 ft 485 kts 122°
2026-05-06 15:31 15.45635 63.79708 38863 ft 486 kts 122°
2026-05-06 15:32 15.40176 63.88565 38863 ft 487 kts 122°
2026-05-06 15:32 15.36536 63.94464 38862 ft 484 kts 122°
2026-05-06 15:33 15.32900 64.00353 38863 ft 486 kts 122°
2026-05-06 15:33 15.29279 64.06212 38864 ft 485 kts 123°
2026-05-06 15:34 15.25641 64.12094 38864 ft 486 kts 123°
2026-05-06 15:34 15.21993 64.17989 38864 ft 484 kts 123°
2026-05-06 15:35 15.18352 64.23866 38860 ft 486 kts 123°
2026-05-06 15:35 15.14703 64.29752 38861 ft 484 kts 123°
2026-05-06 15:36 15.11058 64.35627 38863 ft 485 kts 122°
2026-05-06 15:36 15.07406 64.41510 38863 ft 485 kts 123°
2026-05-06 15:37 15.03784 64.47341 38864 ft 486 kts 123°
2026-05-06 15:37 15.00120 64.53233 38864 ft 485 kts 123°
2026-05-06 15:38 14.96471 64.59098 38862 ft 485 kts 123°
2026-05-06 15:38 14.92807 64.64982 38864 ft 485 kts 123°
2026-05-06 15:39 14.89159 64.70836 38864 ft 485 kts 123°
2026-05-06 15:39 14.85514 64.76681 38861 ft 485 kts 122°
2026-05-06 15:40 14.81863 64.82531 38864 ft 485 kts 122°
2026-05-06 15:40 14.78198 64.88399 38866 ft 485 kts 122°
2026-05-06 15:41 14.74547 64.94241 38861 ft 484 kts 122°
2026-05-06 15:41 14.70879 65.00104 38866 ft 485 kts 122°
2026-05-06 15:42 14.67228 65.05937 38863 ft 484 kts 123°
2026-05-06 15:42 14.63584 65.11754 38867 ft 486 kts 123°
2026-05-06 15:43 14.59908 65.17590 38862 ft 482 kts 126°
2026-05-06 15:43 14.57705 65.20205 38883 ft 486 kts 137°
2026-05-06 15:43 14.55120 65.22452 38867 ft 486 kts 140°
2026-05-06 15:44 14.49891 65.26851 38876 ft 485 kts 140°
2026-05-06 15:44 14.44655 65.31242 38873 ft 486 kts 140°
2026-05-06 15:45 14.39418 65.35641 38872 ft 484 kts 140°
2026-05-06 15:45 14.34207 65.40008 38871 ft 485 kts 140°
2026-05-06 15:46 14.28967 65.44403 38870 ft 487 kts 140°
2026-05-06 15:46 14.23729 65.48788 38869 ft 483 kts 140°
2026-05-06 15:47 14.18504 65.53164 38870 ft 485 kts 140°
2026-05-06 15:47 14.13263 65.57548 38872 ft 485 kts 140°
2026-05-06 15:48 14.08021 65.61931 38875 ft 485 kts 140°
2026-05-06 15:48 14.02772 65.66317 38875 ft 486 kts 140°
2026-05-06 15:49 13.97524 65.70699 38875 ft 485 kts 140°
2026-05-06 15:49 13.92311 65.75049 38874 ft 484 kts 140°
2026-05-06 15:50 13.87080 65.79413 38876 ft 485 kts 140°
2026-05-06 15:50 13.81839 65.83781 38876 ft 485 kts 140°
2026-05-06 15:51 13.76596 65.88149 38877 ft 485 kts 140°
2026-05-06 15:51 13.71344 65.92522 38877 ft 485 kts 140°
2026-05-06 15:52 13.66102 65.96884 38872 ft 483 kts 140°
2026-05-06 15:52 13.60874 66.01231 38872 ft 484 kts 140°
2026-05-06 15:53 13.55635 66.05585 38870 ft 484 kts 140°
2026-05-06 15:53 13.50390 66.09942 38870 ft 484 kts 140°
2026-05-06 15:54 13.45156 66.14287 38873 ft 484 kts 140°
2026-05-06 15:54 13.39919 66.18632 38872 ft 483 kts 140°
2026-05-06 15:55 13.34683 66.22973 38873 ft 484 kts 140°
2026-05-06 15:55 13.29475 66.27289 38872 ft 484 kts 140°
2026-05-06 15:56 13.24233 66.31630 38875 ft 483 kts 140°
2026-05-06 15:56 13.18997 66.35966 38876 ft 483 kts 140°
2026-05-06 15:57 13.13762 66.40296 38872 ft 483 kts 140°
2026-05-06 15:57 13.08556 66.44601 38872 ft 483 kts 140°
2026-05-06 15:58 13.03310 66.48935 38872 ft 483 kts 140°
2026-05-06 15:58 12.98071 66.53262 38872 ft 483 kts 140°
2026-05-06 15:59 12.92828 66.57590 38867 ft 484 kts 140°
2026-05-06 15:59 12.87575 66.61924 38868 ft 484 kts 140°
2026-05-06 16:00 12.82333 66.66245 38869 ft 483 kts 140°
2026-05-06 16:00 12.77080 66.70574 38871 ft 485 kts 140°
2026-05-06 16:01 12.71867 66.74868 38876 ft 483 kts 140°
2026-05-06 16:01 12.66633 66.79176 38874 ft 482 kts 140°
2026-05-06 16:02 12.61400 66.83481 38872 ft 482 kts 140°
2026-05-06 16:02 12.56169 66.87783 38870 ft 482 kts 140°
2026-05-06 16:03 12.50933 66.92086 38873 ft 483 kts 141°
2026-05-06 16:03 12.45694 66.96389 38874 ft 483 kts 141°
2026-05-06 16:04 12.40462 67.00685 38880 ft 481 kts 140°
2026-05-06 16:04 12.35267 67.04947 38881 ft 482 kts 140°
2026-05-06 16:05 12.30034 67.09239 38878 ft 482 kts 140°
2026-05-06 16:05 12.24803 67.13526 38879 ft 482 kts 140°
2026-05-06 16:06 12.19569 67.17814 38881 ft 481 kts 140°
2026-05-06 16:06 12.14345 67.22092 38880 ft 481 kts 141°
2026-05-06 16:07 12.09113 67.26373 38880 ft 481 kts 141°
2026-05-06 16:07 12.03883 67.30651 38880 ft 481 kts 141°
2026-05-06 16:08 11.98686 67.34900 38884 ft 482 kts 141°
2026-05-06 16:08 11.93448 67.39180 38879 ft 483 kts 141°
2026-05-06 16:09 11.88200 67.43468 38880 ft 482 kts 141°
2026-05-06 16:09 11.82959 67.47747 38879 ft 482 kts 141°
2026-05-06 16:10 11.77738 67.52008 38879 ft 479 kts 141°
2026-05-06 16:10 11.72525 67.56261 38881 ft 482 kts 141°
2026-05-06 16:11 11.67283 67.60536 38877 ft 482 kts 141°
2026-05-06 16:11 11.62046 67.64803 38878 ft 482 kts 141°
2026-05-06 16:12 11.56807 67.69070 38877 ft 481 kts 141°
2026-05-06 16:12 11.51606 67.73304 38878 ft 481 kts 141°
2026-05-06 16:13 11.46395 67.77544 38874 ft 476 kts 141°
2026-05-06 16:13 11.41197 67.81773 38875 ft 479 kts 141°
2026-05-06 16:14 11.35983 67.86011 38880 ft 479 kts 141°
2026-05-06 16:14 11.30777 67.90242 38878 ft 478 kts 141°
2026-05-06 16:15 11.25564 67.94475 38878 ft 478 kts 141°
2026-05-06 16:15 11.20365 67.98696 38877 ft 478 kts 141°
2026-05-06 16:16 11.15175 68.02906 38881 ft 476 kts 141°
2026-05-06 16:16 11.10863 68.06405 38880 ft 477 kts 141°
2026-05-06 16:17 11.04828 68.11297 38876 ft 477 kts 141°
2026-05-06 16:17 11.00479 68.14821 38879 ft 477 kts 141°
2026-05-06 16:18 10.95284 68.19028 38878 ft 477 kts 141°
2026-05-06 16:18 10.90109 68.23218 38875 ft 478 kts 141°
2026-05-06 16:19 10.84899 68.27434 38875 ft 478 kts 141°
2026-05-06 16:19 10.79682 68.31653 38873 ft 478 kts 141°
2026-05-06 16:20 10.74475 68.35863 38872 ft 479 kts 141°
2026-05-06 16:20 10.69261 68.40076 38875 ft 479 kts 141°
2026-05-06 16:21 10.64040 68.44293 38875 ft 479 kts 141°
2026-05-06 16:21 10.58827 68.48502 38873 ft 478 kts 141°
2026-05-06 16:22 10.53608 68.52714 38878 ft 478 kts 141°
2026-05-06 16:22 10.48433 68.56889 38858 ft 477 kts 141°
2026-05-06 16:23 10.43233 68.61081 38858 ft 477 kts 141°
2026-05-06 16:23 10.38038 68.65268 38855 ft 477 kts 141°
2026-05-06 16:24 10.32838 68.69457 38861 ft 477 kts 141°
2026-05-06 16:24 10.27629 68.73651 38859 ft 478 kts 141°
2026-05-06 16:25 10.22443 68.77826 38861 ft 479 kts 141°
2026-05-06 16:25 10.17193 68.82050 38863 ft 477 kts 141°
2026-05-06 16:26 10.12020 68.86210 38859 ft 477 kts 141°
2026-05-06 16:26 10.06810 68.90398 38861 ft 479 kts 141°
2026-05-06 16:27 10.01581 68.94599 38862 ft 479 kts 141°
2026-05-06 16:27 9.96348 68.98803 38860 ft 479 kts 141°
2026-05-06 16:28 9.91123 69.02997 38858 ft 479 kts 141°
2026-05-06 16:28 9.85940 69.07156 38862 ft 476 kts 141°
2026-05-06 16:29 9.80714 69.11348 38857 ft 476 kts 141°
2026-05-06 16:29 9.75545 69.15493 38855 ft 477 kts 141°
2026-05-06 16:30 9.71217 69.18961 38860 ft 477 kts 141°
2026-05-06 16:30 9.65107 69.23850 38859 ft 479 kts 141°
2026-05-06 16:31 9.59881 69.28032 38858 ft 478 kts 141°
2026-05-06 16:31 9.54657 69.32210 38857 ft 478 kts 141°
2026-05-06 16:32 9.49461 69.36364 38857 ft 476 kts 141°
2026-05-06 16:32 9.44280 69.40504 38858 ft 476 kts 141°
2026-05-06 16:33 9.39077 69.44660 38857 ft 476 kts 141°
2026-05-06 16:34 9.31278 69.50887 38858 ft 476 kts 141°
2026-05-06 16:34 9.26072 69.55043 38857 ft 480 kts 141°
2026-05-06 16:35 9.20835 69.59219 38860 ft 476 kts 140°
2026-05-06 16:35 9.15654 69.63351 38858 ft 475 kts 140°
2026-05-06 16:36 9.10452 69.67497 38857 ft 475 kts 140°
2026-05-06 16:36 9.05292 69.71609 38860 ft 475 kts 140°
2026-05-06 16:37 9.00098 69.75746 38857 ft 475 kts 141°
2026-05-06 16:37 8.94903 69.79882 38856 ft 475 kts 141°
2026-05-06 16:38 8.89707 69.84018 38856 ft 475 kts 141°
2026-05-06 16:38 8.84524 69.88141 38856 ft 476 kts 140°
2026-05-06 16:39 8.79308 69.92290 38857 ft 475 kts 140°
2026-05-06 16:39 8.74110 69.96422 38857 ft 475 kts 140°
2026-05-06 16:40 8.68912 70.00553 38854 ft 476 kts 140°
2026-05-06 16:40 8.63695 70.04697 38857 ft 477 kts 140°
2026-05-06 16:41 8.58472 70.08845 38857 ft 477 kts 140°
2026-05-06 16:41 8.53265 70.12979 38861 ft 474 kts 140°
2026-05-06 16:42 8.48092 70.17085 38858 ft 474 kts 140°
2026-05-06 16:42 8.42935 70.21176 38853 ft 475 kts 140°
2026-05-06 16:43 8.37704 70.25324 38854 ft 476 kts 140°
2026-05-06 16:43 8.32492 70.29455 38852 ft 475 kts 140°
2026-05-06 16:44 8.27285 70.33582 38851 ft 475 kts 140°
2026-05-06 16:44 8.22081 70.37705 38847 ft 475 kts 140°
2026-05-06 16:45 8.16895 70.41812 38856 ft 472 kts 141°
2026-05-06 16:45 8.11742 70.45891 38855 ft 473 kts 141°
2026-05-06 16:46 8.06555 70.49996 38851 ft 474 kts 141°
2026-05-06 16:46 8.01371 70.54097 38852 ft 474 kts 141°
2026-05-06 16:47 7.96172 70.58209 38855 ft 475 kts 141°
2026-05-06 16:47 7.90962 70.62328 38853 ft 476 kts 141°
2026-05-06 16:48 7.85759 70.66441 38855 ft 469 kts 141°
2026-05-06 16:48 7.80658 70.70470 38851 ft 469 kts 141°
2026-05-06 16:49 7.75558 70.74499 38852 ft 467 kts 142°
2026-05-06 16:49 7.70438 70.78541 38851 ft 467 kts 142°
2026-05-06 16:50 7.65315 70.82585 38854 ft 467 kts 142°
2026-05-06 16:50 7.60197 70.86624 38853 ft 467 kts 142°
2026-05-06 16:51 7.55069 70.90667 38851 ft 469 kts 141°
2026-05-06 16:51 7.49924 70.94727 38850 ft 470 kts 141°
2026-05-06 16:52 7.44771 70.98783 38855 ft 470 kts 141°
2026-05-06 16:52 7.39608 71.02848 38856 ft 470 kts 141°
2026-05-06 16:53 7.34461 71.06898 38857 ft 470 kts 141°
2026-05-06 16:53 7.29317 71.10944 38856 ft 469 kts 141°
2026-05-06 16:54 7.24203 71.14966 38853 ft 469 kts 141°
2026-05-06 16:54 7.19057 71.19011 38854 ft 468 kts 141°
2026-05-06 16:55 7.13949 71.23027 38853 ft 466 kts 141°
2026-05-06 16:55 7.08836 71.27044 38855 ft 467 kts 141°
2026-05-06 16:56 7.03716 71.31065 38857 ft 467 kts 141°
2026-05-06 16:56 6.98595 71.35088 38857 ft 467 kts 141°
2026-05-06 16:57 6.93474 71.39107 38858 ft 466 kts 141°
2026-05-06 16:57 6.88353 71.43127 38859 ft 466 kts 141°
2026-05-06 16:58 6.83239 71.47139 38860 ft 465 kts 141°
2026-05-06 16:58 6.78165 71.51120 38859 ft 463 kts 141°
2026-05-06 16:59 6.73102 71.55089 38862 ft 464 kts 141°
2026-05-06 16:59 6.67980 71.59106 38861 ft 470 kts 141°
2026-05-06 17:00 6.62844 71.63130 38865 ft 467 kts 141°
2026-05-06 17:00 6.57712 71.67152 38867 ft 467 kts 141°
2026-05-06 17:01 6.52582 71.71170 38865 ft 467 kts 141°
2026-05-06 17:01 6.47455 71.75184 38869 ft 465 kts 140°
2026-05-06 17:02 6.43227 71.78496 38867 ft 465 kts 140°
2026-05-06 17:02 6.37257 71.83122 38885 ft 466 kts 145°
2026-05-06 17:03 6.31613 71.86372 38872 ft 468 kts 148°
2026-05-06 17:03 6.26848 71.89027 38873 ft 468 kts 148°
2026-05-06 17:04 6.21158 71.92216 38875 ft 471 kts 149°
2026-05-06 17:04 6.15459 71.95398 38868 ft 470 kts 149°
2026-05-06 17:05 6.09760 71.98584 38868 ft 466 kts 148°
2026-05-06 17:05 6.04071 72.01765 38871 ft 468 kts 148°
2026-05-06 17:06 5.98368 72.04950 38871 ft 469 kts 148°
2026-05-06 17:06 5.92667 72.08135 38875 ft 469 kts 148°
2026-05-06 17:07 5.86964 72.11319 38879 ft 469 kts 148°
2026-05-06 17:07 5.81263 72.14499 38879 ft 468 kts 148°
2026-05-06 17:08 5.75568 72.17675 38875 ft 468 kts 148°
2026-05-06 17:08 5.69907 72.20832 38875 ft 468 kts 148°
2026-05-06 17:09 5.64206 72.24010 38876 ft 468 kts 148°
2026-05-06 17:09 5.58506 72.27187 38873 ft 468 kts 148°
2026-05-06 17:10 5.52807 72.30362 38878 ft 469 kts 148°
2026-05-06 17:10 5.47094 72.33544 38879 ft 469 kts 148°
2026-05-06 17:11 5.41399 72.36716 38785 ft 466 kts 148°
2026-05-06 17:11 5.38567 72.38292 38289 ft 465 kts 148°
2026-05-06 17:11 5.35742 72.39866 37556 ft 466 kts 148°
2026-05-06 17:11 5.32905 72.41446 37049 ft 463 kts 148°
2026-05-06 17:12 5.30092 72.43010 36599 ft 460 kts 148°
2026-05-06 17:12 5.27310 72.44558 36165 ft 456 kts 149°
2026-05-06 17:12 5.24579 72.46079 35746 ft 453 kts 149°
2026-05-06 17:12 5.21833 72.47608 35312 ft 450 kts 149°
2026-05-06 17:13 5.19104 72.49126 34879 ft 447 kts 149°
2026-05-06 17:13 5.16393 72.50634 34466 ft 444 kts 149°
2026-05-06 17:13 5.13697 72.52134 34026 ft 442 kts 149°
2026-05-06 17:13 5.11009 72.53629 33545 ft 441 kts 149°
2026-05-06 17:14 5.08327 72.55121 33042 ft 439 kts 149°
2026-05-06 17:14 5.05658 72.56605 32530 ft 438 kts 149°
2026-05-06 17:14 5.02995 72.58086 32033 ft 437 kts 149°
2026-05-06 17:14 5.00336 72.59565 31546 ft 436 kts 149°
2026-05-06 17:15 4.97689 72.61036 31081 ft 435 kts 149°
2026-05-06 17:15 4.95045 72.62506 30616 ft 433 kts 150°
2026-05-06 17:15 4.92412 72.63970 30154 ft 432 kts 150°
2026-05-06 17:15 4.89819 72.65411 29689 ft 431 kts 149°
2026-05-06 17:16 4.87197 72.66869 29161 ft 429 kts 149°
2026-05-06 17:16 4.84595 72.68315 28687 ft 427 kts 150°
2026-05-06 17:16 4.82004 72.69755 28205 ft 425 kts 150°
2026-05-06 17:16 4.79425 72.71193 27733 ft 422 kts 150°
2026-05-06 17:17 4.76861 72.72608 27286 ft 420 kts 150°
2026-05-06 17:17 4.74313 72.74025 26834 ft 417 kts 150°
2026-05-06 17:17 4.71780 72.75437 26383 ft 415 kts 150°
2026-05-06 17:17 4.69260 72.76837 25953 ft 413 kts 150°
2026-05-06 17:18 4.66746 72.78231 25540 ft 411 kts 151°
2026-05-06 17:18 4.64256 72.79613 25103 ft 408 kts 151°
2026-05-06 17:18 4.61802 72.80977 24696 ft 406 kts 151°
2026-05-06 17:18 4.59341 72.82344 24279 ft 404 kts 151°
2026-05-06 17:19 4.56881 72.83710 23864 ft 402 kts 151°
2026-05-06 17:19 4.54440 72.85065 23466 ft 400 kts 152°
2026-05-06 17:19 4.52010 72.86414 22975 ft 398 kts 152°
2026-05-06 17:19 4.49597 72.87752 22504 ft 396 kts 152°
2026-05-06 17:20 4.47195 72.89085 22046 ft 393 kts 152°
2026-05-06 17:20 4.44810 72.90410 21605 ft 391 kts 152°
2026-05-06 17:20 4.42441 72.91725 21141 ft 388 kts 152°
2026-05-06 17:20 4.40086 72.93031 20709 ft 386 kts 152°
2026-05-06 17:21 4.37746 72.94330 20274 ft 383 kts 152°
2026-05-06 17:21 4.35417 72.95623 19835 ft 381 kts 152°
2026-05-06 17:21 4.33108 72.96903 19418 ft 379 kts 152°
2026-05-06 17:21 4.30807 72.98180 19004 ft 377 kts 152°
2026-05-06 17:22 4.28521 72.99448 18575 ft 375 kts 152°
2026-05-06 17:22 4.26245 73.00711 18158 ft 373 kts 152°
2026-05-06 17:22 4.23981 73.01966 17699 ft 371 kts 152°
2026-05-06 17:22 4.21728 73.03215 17208 ft 368 kts 152°
2026-05-06 17:23 4.19524 73.04438 16762 ft 366 kts 152°
2026-05-06 17:23 4.17306 73.05668 16310 ft 363 kts 152°
2026-05-06 17:23 4.15090 73.06896 15662 ft 366 kts 152°
2026-05-06 17:23 4.12835 73.08146 14943 ft 371 kts 152°
2026-05-06 17:24 4.10567 73.09404 14220 ft 375 kts 152°
2026-05-06 17:24 4.08271 73.10677 13539 ft 378 kts 152°
2026-05-06 17:24 4.05971 73.11952 12777 ft 379 kts 152°
2026-05-06 17:24 4.03659 73.13234 12034 ft 380 kts 152°
2026-05-06 17:25 4.01348 73.14512 11318 ft 380 kts 152°
2026-05-06 17:25 3.99057 73.15764 11071 ft 366 kts 152°
2026-05-06 17:25 3.96890 73.16943 10811 ft 353 kts 152°
2026-05-06 17:25 3.94766 73.18100 10547 ft 342 kts 152°
2026-05-06 17:26 3.92711 73.19219 10407 ft 328 kts 152°
2026-05-06 17:26 3.90765 73.20280 10351 ft 310 kts 152°
2026-05-06 17:26 3.88900 73.21298 10090 ft 303 kts 152°
2026-05-06 17:26 3.87078 73.22293 9745 ft 299 kts 152°
2026-05-06 17:27 3.85246 73.23294 9364 ft 295 kts 152°
2026-05-06 17:27 3.83447 73.24276 8998 ft 292 kts 152°
2026-05-06 17:27 3.81679 73.25241 8642 ft 288 kts 152°
2026-05-06 17:27 3.80082 73.26406 8273 ft 284 kts 127°
2026-05-06 17:28 3.79334 73.28186 7966 ft 277 kts 99°
2026-05-06 17:28 3.79109 73.30097 7540 ft 277 kts 93°
2026-05-06 17:28 3.79000 73.32027 7072 ft 279 kts 91°
2026-05-06 17:28 3.78917 73.33924 6590 ft 267 kts 91°
2026-05-06 17:29 3.78843 73.35755 6090 ft 258 kts 91°
2026-05-06 17:29 3.78894 73.37516 5580 ft 250 kts 82°
2026-05-06 17:29 3.79112 73.39215 5341 ft 240 kts 81°
2026-05-06 17:29 3.79360 73.40857 5017 ft 237 kts 79°
2026-05-06 17:30 3.79839 73.42398 4652 ft 235 kts 60°
2026-05-06 17:30 3.80823 73.43681 4286 ft 232 kts 43°
2026-05-06 17:30 3.82004 73.44752 4051 ft 223 kts 38°
2026-05-06 17:30 3.83166 73.45690 4039 ft 209 kts 34°
2026-05-06 17:31 3.84346 73.46511 4038 ft 204 kts 32°
2026-05-06 17:31 3.85532 73.47337 4040 ft 208 kts 32°
2026-05-06 17:31 3.86732 73.48145 4041 ft 207 kts 30°
2026-05-06 17:31 3.87946 73.48899 4019 ft 202 kts 29°
2026-05-06 17:32 3.89143 73.49641 3862 ft 202 kts 29°
2026-05-06 17:32 3.90346 73.50399 3725 ft 202 kts 30°
2026-05-06 17:32 3.91489 73.51247 3581 ft 204 kts 34°
2026-05-06 17:32 3.92701 73.51972 3424 ft 204 kts 24°
2026-05-06 17:33 3.93996 73.52511 3192 ft 201 kts 17°
2026-05-06 17:33 3.95328 73.52948 2973 ft 201 kts 11°
2026-05-06 17:33 3.96708 73.53079 2750 ft 198 kts 359°
2026-05-06 17:33 3.98084 73.53094 2537 ft 197 kts 357°
2026-05-06 17:34 3.99458 73.53096 2331 ft 197 kts 357°
2026-05-06 17:34 4.00829 73.53095 2111 ft 196 kts 357°
2026-05-06 17:34 4.02163 73.53096 2073 ft 199 kts 357°
2026-05-06 17:34 4.03511 73.53098 2067 ft 184 kts 356°
2026-05-06 17:35 4.04777 73.53099 2063 ft 181 kts 357°
2026-05-06 17:35 4.05994 73.53103 2055 ft 170 kts 356°
2026-05-06 17:35 4.07178 73.53102 2062 ft 172 kts 356°
2026-05-06 17:36 4.09547 73.53102 1729 ft 170 kts 357°
2026-05-06 17:36 4.10753 73.53102 1496 ft 169 kts 356°
2026-05-06 17:36 4.11921 73.53104 1297 ft 173 kts 356°
2026-05-06 17:36 4.13103 73.53104 1063 ft 165 kts 356°
2026-05-06 17:37 4.14299 73.53104 843 ft 167 kts 356°
2026-05-06 17:37 4.15450 73.53099 669 ft 177 kts 357°
2026-05-06 17:37 4.16623 73.53104 420 ft 154 kts 358°
2026-05-06 17:37 4.17693 73.53099 210 ft 151 kts 356°
2026-05-06 17:38 4.18731 73.53106 29 ft 150 kts 357°
2026-05-06 17:38 4.19641 73.53102 19 ft 104 kts 360°
2026-05-06 17:38 4.20138 73.53100 18 ft 44 kts 359°
2026-05-06 17:38 4.20347 73.53087 18 ft 16 kts 327°
2026-05-06 17:39 4.20371 73.52988 18 ft 20 kts 268°
2026-05-06 17:39 4.20332 73.52892 18 ft 11 kts 207°
2026-05-06 17:39 4.20277 73.52894 18 ft 8 kts 171°
2026-05-06 17:39 4.20219 73.52898 18 ft 9 kts 179°
2026-05-06 17:40 4.20149 73.52899 19 ft 11 kts 179°
2026-05-06 17:40 4.20069 73.52901 18 ft 12 kts 179°
2026-05-06 17:40 4.19978 73.52902 18 ft 14 kts 179°
2026-05-06 17:40 4.19880 73.52904 18 ft 15 kts 179°
2026-05-06 17:41 4.19776 73.52904 18 ft 15 kts 180°
2026-05-06 17:41 4.19665 73.52906 18 ft 16 kts 178°
2026-05-06 17:41 4.19549 73.52910 18 ft 17 kts 179°
2026-05-06 17:41 4.19429 73.52911 18 ft 17 kts 180°
2026-05-06 17:42 4.19310 73.52912 18 ft 15 kts 178°
2026-05-06 17:42 4.19201 73.52915 18 ft 16 kts 178°
2026-05-06 17:42 4.19084 73.52918 18 ft 17 kts 179°
2026-05-06 17:42 4.18965 73.52918 19 ft 16 kts 180°
2026-05-06 17:43 4.18865 73.52918 18 ft 14 kts 178°
2026-05-06 17:43 4.18766 73.52921 18 ft 15 kts 178°
2026-05-06 17:43 4.18692 73.52889 18 ft 9 kts 242°
2026-05-06 17:43 4.18666 73.52863 18 ft 4 kts 212°
2026-05-06 17:44 4.18626 73.52856 18 ft 8 kts 182°
2026-05-06 17:44 4.18557 73.52856 18 ft 12 kts 180°
2026-05-06 17:44 4.18470 73.52857 19 ft 13 kts 179°
2026-05-06 17:44 4.18400 73.52852 18 ft 2 kts 210°
2026-05-06 17:45 4.18391 73.52838 20 ft 4 kts 241°
2026-05-06 17:45 4.18387 73.52811 19 ft 4 kts 270°
2026-05-06 17:45 4.18387 73.52792 18 ft 2 kts 269°
2026-05-06 17:45 4.18387 73.52788 18 ft 0 kts 269°